Location: Cassano d�Adda
(45.5333°N, 9.5167°E)
Time: 11:47:57
(UTC+00:00)

Okean-O - Pass Details

Date: 08 December 2019
Orbit: 639 x 640 km, 98.2° (Epoch: 27 January)

Event Time Altitude Azimuth Distance (km) Brightness Sun altitude
Rises 16:23:04 0° 141° (SE) 2,935 5.9 -7.7°
Reaches altitude 10° 16:25:25 10° 132° (SE) 2,031 5.0 -8.1°
Maximum altitude 16:29:23 33° 68° (ENE) 1,072 3.3 -8.7°
Drops below altitude 10° 16:33:22 10° 4° (N) 2,044 5.0 -9.3°
Sets 16:35:44 0° 355° (N) 2,958 5.9 -9.7°
